Location: Hartford
(41.7640°N, 72.6860°W)
Time: 13:42:42
(UTC-05:00)

ISS - All Passes

Search period start: 21 December 2014 00:00
Search period end: 31 December 2014 00:00
Orbit: 404 x 414 km, 51.6° (Epoch: 21 December)

Date Brightness Start Highest point End Pass type
(mag) Time Alt. Az. Time Alt. Az. Time Alt. Az.
21 Dec - 13:03:29 10° SW 13:06:44 59° SE 13:09:59 10° ENE daylight
21 Dec - 14:40:43 10° W 14:43:31 25° NNW 14:46:19 10° NE daylight
21 Dec - 16:19:00 10° NW 16:20:57 15° N 16:22:54 10° NE daylight
21 Dec - 17:55:41 10° NW 17:58:24 23° NNE 18:01:06 10° ENE visible
21 Dec - 19:31:58 10° WNW 19:35:14 68° SW 19:38:29 10° SE visible
22 Dec - 12:13:04 10° SSW 12:16:02 31° SE 12:19:01 10° ENE daylight
22 Dec - 13:49:30 10° W 13:52:35 35° NNW 13:55:39 10° NE daylight
22 Dec - 15:27:48 10° NW 15:29:52 15° N 15:31:56 10° NNE daylight
22 Dec - 17:04:59 10° NNW 17:07:23 18° NNE 17:09:47 10° ENE visible
22 Dec - 18:41:10 10° NW 18:44:27 66° NNE 18:47:41 10° ESE visible
22 Dec - 20:18:48 10° W 20:20:39 14° SW 20:22:30 10° SSW night (unlit)
23 Dec - 11:23:05 10° S 11:25:22 18° SE 11:27:39 10° E daylight
23 Dec - 12:58:24 10° WSW 13:01:39 56° NNW 13:04:55 10° NE daylight
23 Dec - 14:36:26 10° WNW 14:38:46 18° NNW 14:41:05 10° NNE daylight
23 Dec - 16:14:10 10° NNW 16:16:18 16° N 16:18:25 10° NE daylight
23 Dec - 17:50:25 10° NW 17:53:32 40° NNE 17:56:39 10° E visible
23 Dec - 19:27:12 10° WNW 19:30:00 26° SW 19:32:46 10° SSE visible
24 Dec - 12:07:28 10° SW 12:10:46 82° SE 12:14:04 10° ENE daylight
24 Dec - 13:45:01 10° WNW 13:47:40 22° NNW 13:50:18 10° NE daylight
24 Dec - 15:23:10 10° NW 15:25:08 15° N 15:27:06 10° NE daylight
24 Dec - 16:59:39 10° NW 17:02:31 27° NNE 17:05:23 10° E visible
24 Dec - 18:36:03 10° WNW 18:39:14 48° SW 18:42:23 10° SE visible
25 Dec - 11:16:45 10° SSW 11:19:54 43° SE 11:23:04 10° ENE daylight
25 Dec - 12:53:37 10° W 12:56:34 29° NNW 12:59:30 10° NE daylight
25 Dec - 14:31:56 10° NW 14:33:55 15° N 14:35:55 10° NNE daylight
25 Dec - 16:08:50 10° NW 16:11:24 21° NNE 16:13:58 10° ENE daylight
25 Dec - 17:45:03 10° NW 17:48:21 89° NE 17:51:37 10° SE visible
25 Dec - 19:23:52 10° WSW 19:24:25 10° SW 19:24:58 10° SW visible
26 Dec - 10:26:21 10° S 10:29:04 24° SE 10:31:47 10° E daylight
26 Dec - 12:02:18 10° WSW 12:05:29 43° NNW 12:08:40 10° NE daylight
26 Dec - 13:40:30 10° NW 13:42:41 16° N 13:44:52 10° NNE daylight
26 Dec - 15:17:56 10° NNW 15:20:12 17° N 15:22:28 10° NE daylight
26 Dec - 16:54:07 10° NW 16:57:21 51° NNE 17:00:33 10° ESE visible
26 Dec - 18:31:15 10° W 18:33:40 19° SW 18:36:04 10° S visible
27 Dec - 09:36:38 10° SSE 09:38:16 13° SE 09:39:53 10° E daylight
27 Dec - 11:11:07 10° WSW 11:14:25 74° NW 11:17:44 10° NE daylight
27 Dec - 12:48:56 10° WNW 12:51:25 19° NNW 12:53:54 10° NNE daylight
27 Dec - 14:26:53 10° NNW 14:28:55 15° N 14:30:57 10° NE daylight
27 Dec - 16:03:13 10° NW 16:06:14 32° NNE 16:09:14 10° E daylight
27 Dec - 17:39:46 10° WNW 17:42:48 35° SW 17:45:48 10° SSE visible
28 Dec - 10:20:08 10° SW 10:23:24 60° SE 10:26:40 10° ENE daylight
28 Dec - 11:57:22 10° WNW 12:00:10 25° NNW 12:02:58 10° NE daylight
28 Dec - 13:35:37 10° NW 13:37:35 15° N 13:39:33 10° NE daylight
28 Dec - 15:12:17 10° NW 15:15:01 23° NNE 15:17:44 10° ENE daylight
28 Dec - 16:48:33 10° WNW 16:51:50 67° SW 16:55:04 10° SE daylight
29 Dec - 09:29:25 10° SSW 09:32:24 32° SE 09:35:23 10° ENE daylight
29 Dec - 11:05:51 10° W 11:08:55 35° NNW 11:12:00 10° NE daylight
29 Dec - 12:44:08 10° NW 12:46:12 15° N 12:48:17 10° NNE daylight
29 Dec - 14:21:17 10° NNW 14:23:42 19° NNE 14:26:07 10° ENE daylight
29 Dec - 15:57:27 10° NW 16:00:44 67° NNE 16:04:00 10° ESE daylight
29 Dec - 17:35:05 10° W 17:36:55 14° SW 17:38:45 10° SSW visible
30 Dec - 08:39:08 10° S 08:41:26 18° SE 08:43:44 10° E daylight
30 Dec - 10:14:27 10° WSW 10:17:42 56° NNW 10:20:58 10° NE daylight
30 Dec - 11:52:28 10° WNW 11:54:48 18° NNW 11:57:08 10° NNE daylight
30 Dec - 13:30:10 10° NNW 13:32:18 16° N 13:34:27 10° NE daylight
30 Dec - 15:06:23 10° NW 15:09:32 40° NNE 15:12:39 10° E daylight
30 Dec - 16:43:11 10° WNW 16:45:58 26° SW 16:48:44 10° SSE daylight
